Location: Grodzisk Wielkopolski
(52.2262°N, 16.3624°E)
Time: 13:31:58
(UTC+01:00)

ISS - Pass Details

Date: 29 November 2017
Orbit: 403 x 407 km, 51.6° (Epoch: 12 December)

Event Time Altitude Azimuth Distance (km) Brightness Sun altitude
Rises 17:22:09 0° 197° (SSW) 2,320 0.5 -13.8°
Reaches altitude 10° 17:25:08 10° 167° (SSE) 1,464 -1.0 -14.3°
Maximum altitude 17:26:37 13° 140° (SE) 1,318 -1.5 -14.5°
Enters shadow 17:26:58 12° 133° (SE) 1,326 -1.5 -14.5°
